Hourly Data Report for August 20, 2000

SHERBROOKE A
QUEBEC

45°26'00.000" N
71°41'00.000" W
241.40 m
7028124
71610
YSC

Download Data

Hourly Data (August 2000)
Hourly Data Report for August 20, 2000
TIME
LST
Temp Definition
°C
Dew Point Definition
°C
Rel Hum Definition
%
Precip. Amount Definition
mm

Wind Dir Definition
10's deg

Wind Spd Definition
km/h
Visibility Definition
km
Stn Press Definition
kPa
Hmdx Definition


Wind Chill Definition


Weather Definition


00:00 9.6 9.2 97   13 4 15.0 98.88      
01:00 7.6 7.5 99   21 4 15.0 98.88      
02:00 7.9 7.9 100     0 0.8 98.85      
03:00 10.0 10.0 100   28 9 15.0 98.88      
04:00 10.0 8.9 93   34 4 15.0 98.82     Rain
05:00 9.6 8.9 95   24 9 15.0 98.95     Rain
06:00 9.7 9.2 97   26 9 15.0 99.02     Rain
07:00 10.1 9.5 96   25 9 12.9 99.05     Cloudy
08:00 10.6 9.7 94   26 13 12.9 99.08     Drizzle
09:00 11.6 9.4 86   27 19 19.3 99.08     Cloudy
10:00 12.2 9.6 84   27 15 24.1 99.08     Cloudy
11:00 14.2 11.0 81   27 26 24.1 99.08     Rain Showers
12:00 12.8 9.8 82   27 17 24.1 99.08     Cloudy
13:00 12.5 10.3 86   27 17 24.1 99.08     Rain Showers
14:00 13.2 11.9 92   27 22 16.1 99.08     Rain Showers
15:00 13.5 11.6 88   27 19 24.1 99.12     Cloudy
16:00 13.2 12.3 94   26 19 9.7 99.12     Rain, Fog
17:00 13.9 12.8 93   25 9 15.0 99.15      
18:00 13.8 13.1 96   25 9 9.7 99.12     Rain
19:00 13.3 12.5 95   23 7 15.0 99.15      
20:00 13.0 11.9 93   24 11 15.0 99.18      
21:00 12.0 11.2 95   22 9 15.0 99.22      
22:00 11.8 10.6 92   25 9 15.0 99.22      
23:00 10.7 9.9 95   21 7 15.0 99.22      

Notes on Data Quality.

Legend

  • E = Estimated
  • M = Missing
  • NA = Not Available*
  • [empty] = Indicates an unobserved value
Date modified: